Location: D�rnast
(49.6426°N, 11.9755°E)
Time: 08:14:10
(UTC+00:00)

N. Korean satellite - Pass Details

Date: 10 December 2021
Orbit: 446 x 491 km, 97.3° (Epoch: 18 January)

Event Time Altitude Azimuth Distance (km) Brightness Sun altitude
Rises 04:59:53 0° 7° (N) 2,464 10.1 -18.1°
Reaches altitude 10° 05:01:58 10° 1° (N) 1,586 9.0 -17.7°
Enters shadow 05:03:57 30° 341° (NNW) 840 7.4 -17.4°
Exits shadow 05:06:31 29° 234° (SW) 848 7.4 -17.0°
Drops below altitude 10° 05:08:27 10° 214° (SW) 1,576 9.0 -16.7°
Sets 05:10:31 0° 208° (SSW) 2,446 10.0 -16.4°
